Location: Newark
(48.1500°N, 2.9667°W)
Time: 00:43:08
(UTC+00:00)

A-11 Canister half - Pass Details

Date: 27 January 2020
Orbit: 1524 x 1684 km, 47.3° (Epoch: 20 February)

Event Time Altitude Azimuth Distance (km) Brightness Sun altitude
Rises 23:46:15 0° 290° (WNW) 4,758 11.8 -59.2°
Enters shadow 23:48:27 - 286° (WNW) 4,119 11.4 -59.3°
Reaches altitude 10° 23:49:37 10° 282° (WNW) 3,794 - -59.4°
Maximum altitude 23:58:00 35° 222° (SW) 2,392 - -59.8°
Drops below altitude 10° 00:06:38 10° 161° (SSE) 3,891 - -60.0°
Sets 00:10:09 0° 153° (SSE) 4,893 - -60.1°
